Voltar ao catálogo

COSMOS 887 DEB

AtivoPO
NORAD 27881·DEBRIS·🇷🇺 Russia

Lançado Dec 28, 1976 de Plesetsk Cosmodrome

Loading…

Próximas Passagens (próximas 24 horas)

TLE

AtualizadoSource: Space-Track

Época: Sep 14, 2026, 13:04 UTC

1 27881U 76128C   26257.54460269  .00000592  00000-0  48328-3 0  9992
2 27881  82.9368  31.0295 0041861 125.4035   3.4349 13.87672325267309

Acompanhe COSMOS 887 DEB em tempo real com AllMySat

Download on the App Store